Total_Precipitation_Accumulation
1.64 2.01 2.58 3.46 4.53 5.41 5.69 5.15 4.58 4.17 3.72 3.26 2.64 2.26 2.13 2.01 1.80 1.57 1.28 1.12 1.02 1.01 1.01 0.90 0.91 0.85 0.87 0.89 0.89 0.97 1.01 0.99 1.06 1.23 1.25 1.09 0.93 0.95 0.94 0.97 1.09 1.00 1.00
1.81 2.44 3.43 4.08 4.35 4.47 4.20 3.83 3.50 3.26 2.79 2.33 2.00 1.79 1.74 1.59 1.40 1.29 1.17 0.94 0.84 0.83 0.78 0.80 0.77 0.73 0.82 0.84 0.82 0.83 0.85 0.84 0.87 1.01 1.14 1.02 0.94 0.81 0.64 0.76 0.76 0.80 1.02
1.95 2.74 3.31 3.44 3.18 2.87 2.77 2.69 2.68 2.40 2.24 2.11 1.95 1.84 1.79 1.60 1.33 1.15 1.02 0.83 0.72 0.68 0.66 0.67 0.68 0.71 0.69 0.76 0.79 0.72 0.78 0.82 0.76 0.77 0.97 1.00 0.95 0.80 0.61 0.58 0.66 0.79 0.92
1.47 1.89 2.14 2.04 2.15 2.26 2.28 2.36 2.41 2.12 2.09 1.99 1.63 1.43 1.32 1.20 1.03 0.94 0.94 0.96 0.80 0.66 0.57 0.56 0.56 0.59 0.59 0.72 0.64 0.66 0.73 0.77 0.68 0.63 0.65 0.74 0.80 0.85 0.78 0.65 0.63 0.74 0.83
0.89 0.99 1.12 1.25 1.43 1.53 1.69 1.97 2.17 2.12 1.96 1.78 1.61 1.50 1.33 1.27 1.23 1.18 1.14 1.06 0.95 0.78 0.66 0.65 0.60 0.57 0.55 0.60 0.59 0.74 0.75 0.73 0.67 0.62 0.62 0.67 0.64 0.63 0.71 0.68 0.61 0.63 0.57
0.75 0.78 0.81 0.92 1.06 1.16 1.31 1.58 1.87 2.00 1.94 1.78 1.63 1.54 1.47 1.39 1.30 1.25 1.20 1.05 0.96 0.90 0.81 0.77 0.73 0.64 0.59 0.57 0.56 0.68 0.73 0.79 0.78 0.69 0.63 0.67 0.65 0.62 0.67 0.58 0.49 0.51 0.41
0.73 0.78 0.73 0.67 0.71 0.86 1.02 1.13 1.29 1.53 1.64 1.61 1.53 1.48 1.54 1.41 1.21 1.10 1.04 1.00 0.88 0.80 0.75 0.73 0.70 0.60 0.59 0.65 0.70 0.70 0.70 0.73 0.78 0.72 0.66 0.64 0.57 0.61 0.63 0.57 0.50 0.54 0.47
0.53 0.58 0.57 0.50 0.47 0.58 0.79 0.91 1.08 1.24 1.43 1.41 1.35 1.31 1.36 1.30 1.18 1.14 0.96 0.88 0.85 0.80 0.80 0.78 0.70 0.66 0.68 0.68 0.79 0.68 0.64 0.68 0.69 0.61 0.73 0.70 0.52 0.59 0.62 0.67 0.77 0.75 0.71
0.35 0.46 0.49 0.47 0.43 0.46 0.65 0.77 0.93 1.12 1.31 1.40 1.37 1.27 1.28 1.30 1.24 1.14 1.01 0.88 0.93 0.90 0.95 0.86 0.75 0.78 0.81 0.82 0.86 0.74 0.71 0.74 0.68 0.68 0.80 0.79 0.68 0.66 0.64 0.72 0.87 0.99 0.89
0.30 0.42 0.50 0.44 0.39 0.38 0.46 0.59 0.76 0.97 1.11 1.26 1.25 1.13 1.26 1.25 1.21 1.14 1.03 0.93 0.89 0.88 0.93 0.88 0.79 0.79 0.80 0.84 0.89 0.79 0.80 0.82 0.80 0.84 0.90 0.91 0.83 0.81 0.78 0.79 0.89 1.07 1.09
0.28 0.37 0.42 0.42 0.40 0.34 0.36 0.44 0.58 0.74 0.84 0.93 1.00 0.98 1.04 1.02 1.01 1.04 1.03 1.00 0.97 0.93 0.87 0.86 0.86 0.81 0.83 0.88 0.94 0.91 0.89 0.84 0.87 0.87 0.89 0.90 0.96 1.02 1.02 1.06 1.07 1.12 1.27
0.38 0.34 0.29 0.35 0.42 0.34 0.29 0.33 0.42 0.55 0.63 0.68 0.73 0.77 0.83 0.89 0.88 0.88 0.96 1.03 0.99 0.94 0.93 0.91 0.86 0.76 0.77 0.90 0.95 0.93 0.93 0.91 0.88 0.93 1.02 0.99 1.00 1.09 1.14 1.26 1.25 1.27 1.45
0.26 0.26 0.26 0.32 0.36 0.32 0.29 0.30 0.34 0.42 0.49 0.50 0.57 0.67 0.74 0.76 0.75 0.77 0.86 0.95 1.00 1.00 0.96 0.93 0.85 0.79 0.76 0.83 0.88 0.94 1.02 1.04 1.06 1.10 1.15 1.14 1.23 1.22 1.25 1.31 1.29 1.34 1.50
0.18 0.19 0.23 0.32 0.35 0.33 0.29 0.30 0.37 0.46 0.51 0.55 0.66 0.76 0.82 0.83 0.83 0.81 0.85 0.92 1.00 1.02 1.05 1.06 1.06 1.03 0.97 0.93 0.94 1.01 1.05 1.08 1.13 1.22 1.24 1.25 1.33 1.40 1.45 1.47 1.55 1.63 1.75
0.22 0.24 0.28 0.41 0.44 0.44 0.41 0.41 0.47 0.56 0.65 0.75 0.90 1.07 1.19 1.19 1.11 1.08 1.11 1.13 1.18 1.22 1.34 1.34 1.29 1.25 1.20 1.07 1.10 1.10 1.06 1.15 1.11 1.17 1.23 1.22 1.26 1.33 1.44 1.47 1.61 1.79 1.96
0.29 0.29 0.38 0.48 0.46 0.42 0.41 0.43 0.50 0.58 0.62 0.70 0.80 0.96 1.14 1.21 1.17 1.15 1.23 1.31 1.35 1.47 1.52 1.46 1.42 1.39 1.21 1.26 1.25 1.17 1.21 1.26 1.24 1.27 1.31 1.27 1.21 1.18 1.24 1.34 1.46 1.61 1.79
0.27 0.27 0.34 0.39 0.44 0.38 0.35 0.37 0.43 0.56 0.68 0.80 0.91 0.98 1.08 1.18 1.21 1.22 1.30 1.38 1.38 1.38 1.43 1.43 1.37 1.29 1.27 1.21 1.08 1.09 1.10 1.19 1.25 1.25 1.28 1.17 1.06 1.10 1.06 1.14 1.20 1.24 1.35
0.44 0.47 0.55 0.54 0.51 0.45 0.42 0.46 0.55 0.66 0.74 0.82 0.91 0.96 1.06 1.17 1.28 1.41 1.48 1.52 1.56 1.55 1.53 1.44 1.37 1.37 1.32 1.18 1.05 1.06 1.02 1.07 1.10 1.11 1.15 1.15 1.06 1.04 1.07 1.08 1.04 0.97 0.98
0.47 0.55 0.63 0.68 0.59 0.58 0.58 0.65 0.73 0.84 0.90 0.94 1.01 1.07 1.13 1.26 1.35 1.42 1.52 1.60 1.67 1.63 1.61 1.58 1.55 1.55 1.55 1.42 1.19 1.10 1.08 1.17 1.16 1.15 1.15 1.16 1.08 1.10 1.00 0.98 0.97 0.92 0.88
0.57 0.63 0.63 0.61 0.68 0.71 0.73 0.79 0.88 0.98 1.05 1.06 1.08 1.12 1.26 1.34 1.35 1.35 1.41 1.46 1.50 1.48 1.46 1.45 1.48 1.50 1.53 1.52 1.20 1.02 0.96 1.04 1.08 1.14 1.14 1.13 1.04 1.07 0.99 1.00 1.04 0.97 0.89
0.72 0.68 0.65 0.67 0.70 0.69 0.72 0.81 0.92 1.01 1.05 1.07 1.06 1.11 1.21 1.34 1.38 1.42 1.39 1.35 1.33 1.34 1.37 1.39 1.42 1.46 1.48 1.42 1.08 0.95 0.94 1.03 1.07 1.05 1.03 1.07 1.04 0.92 0.84 0.81 0.86 0.89 0.89
0.78 0.73 0.66 0.63 0.64 0.69 0.73 0.81 0.89 0.91 0.95 0.96 0.97 1.01 1.03 1.05 1.12 1.28 1.33 1.33 1.33 1.34 1.39 1.46 1.49 1.47 1.44 1.33 1.07 0.85 0.84 0.93 0.99 1.03 1.03 1.07 1.03 0.89 0.79 0.69 0.69 0.71 0.68
0.70 0.69 0.69 0.68 0.69 0.73 0.78 0.86 0.88 0.91 0.92 0.99 1.03 1.01 1.00 1.05 1.11 1.18 1.20 1.18 1.15 1.11 1.12 1.25 1.36 1.36 1.37 1.31 1.07 0.85 0.77 0.81 0.86 0.95 1.12 1.11 0.99 0.91 0.85 0.78 0.69 0.63 0.59
0.69 0.69 0.69 0.71 0.78 0.84 0.89 0.87 0.84 0.89 0.96 0.99 1.01 1.04 1.08 1.05 1.05 1.11 1.10 1.06 1.04 1.01 1.00 1.17 1.31 1.39 1.40 1.32 1.15 1.00 0.90 0.90 0.91 0.97 1.11 1.17 1.14 1.07 0.98 0.87 0.70 0.56 0.55
0.59 0.62 0.68 0.74 0.81 0.84 0.88 0.91 0.89 0.91 0.96 0.93 0.90 0.97 1.03 0.98 0.93 1.02 1.09 1.01 1.00 1.04 1.06 1.21 1.44 1.49 1.40 1.28 1.11 0.98 0.99 0.99 1.05 1.09 1.23 1.36 1.37 1.34 1.23 1.06 0.89 0.76 0.72
0.59 0.66 0.69 0.75 0.81 0.84 0.87 0.87 0.87 0.93 0.97 1.00 0.94 0.89 0.89 0.90 0.93 0.98 1.01 1.00 0.87 0.87 0.84 0.92 1.05 1.17 1.13 1.02 0.92 0.85 0.84 0.81 0.83 0.90 1.11 1.37 1.45 1.46 1.42 1.31 1.13 0.98 0.90